Regional Weather Roundup
Issued by NWS

Home | Current Version | Previous Version | Graphics & Text | Print | Product List | Glossary On
Versions: 1 2 3 4 5 6 7 8 9 10 11 12 13 14 15 16 17 18 19 20 21 22 23 24 25 26 27 28 29 30 31 32 33 34 35 36 37 38 39 40 41 42 43 44 45 46 47 48 49 50
000
ASUS45 KTFX 011004
RWRMT
MONTANA HOURLY WEATHER ROUNDUP
NATIONAL WEATHER SERVICE GREAT FALLS MT
404 AM MDT WED OCT 1 2014

NOTE: "FAIR" INDICATES FEW OR NO CLOUDS BELOW 12000 FEET WITH NO
SIGNIFICANT WEATHER AND/OR OBSTRUCTIONS TO VISIBILITY.

* THESE STATIONS ARE NOT UNDER NWS QUALITY CONTROL. THEY DO NOT
   REPORT WEATHER SUCH AS PRECIPITATION OR FOG.

MTZ001>007-043-011100-
WEST OF THE DIVIDE
CITY           SKY/WX    TMP DP  RH WIND       PRES   REMARKS
KALISPELL      CLOUDY    45  45 100 CALM      29.98R
MISSOULA       CLOUDY    46  41  83 SW3       30.02R
BUTTE          CLOUDY    34  30  85 SE6       29.99R WCI  29
MULLAN PASS    FAIR      32  32 100 NW6       30.02R WCI  26
* LINCOLN      N/A       42  36  79 S3         N/A
* SEELEY LAKE  N/A       40  38  93 N2         N/A
* THOMP F APT  CLEAR     36  28  73 NW6G19     N/A   WCI  31
* YAAK HILL    N/A       40  38  93 NE1        N/A
$$

MTZ008-052>055-011100-
SOUTHWEST MONTANA
CITY           SKY/WX    TMP DP  RH WIND       PRES   REMARKS
BOZEMAN        CLOUDY    39  36  89 CALM      29.97R
DILLON         MOCLDY    39  30  70 S9        29.97F WCI  33
W YELLOWSTONE  MOCLDY    36  36 100 S3        29.95S
* BOULDER HILL N/A       39  23  53 NE4        N/A
* WHITEHALL    N/A       36  32  85 W4         N/A
* WISE RIVER   N/A       35  28  76 E3         N/A
$$

MTZ009>010-012-014-046-048-049-054-011100-
EAST SLOPES AND CENTRAL MONTANA
CITY           SKY/WX    TMP DP  RH WIND       PRES   REMARKS
CUT BANK       MOCLDY    41  37  86 W10       29.90S
GREAT FALLS    CLOUDY    43  39  86 SW9       29.91S
HELENA         MOCLDY    46  34  63 W7        29.93F
MALMSTROM AFB  MOCLDY    45  41  86 W9        29.92S
* MONARCH      N/A       38  35  89 SW6        N/A   WCI  33
* SAINT MARY   N/A       33  33 100 SE2        N/A
* SWEET GRASS  N/A       41  39  93 NW14G19    N/A
$$

MTZ011-013-016-021-035-040-045-047-050-051-011100-
NORTH CENTRAL MONTANA
CITY           SKY/WX    TMP DP  RH WIND       PRES   REMARKS
HAVRE          LGT RAIN  46  45  96 W9        29.83S
LEWISTOWN      CLOUDY    45  39  80 W16       29.88S
* DENTON       N/A       45  40  83 W8         N/A
* JUDITH GAP   N/A       40  39  96 NW4        N/A
$$

MTZ017>020-022>027-061-062-011100-
NORTHEAST MONTANA
CITY           SKY/WX    TMP DP  RH WIND       PRES   REMARKS
GLASGOW        CLOUDY    50  45  83 W20G28    29.67R
GLENDIVE       CLOUDY    54  48  80 W18G25    29.67R
JORDAN         CLEAR     48  45  89 NW17G25   29.75R
SIDNEY         CLOUDY    54  50  86 W16G22    29.60R
WOLF POINT     CLOUDY    54  48  80 W21G28    29.63R
* CIRCLE       N/A       51  48  90 W13        N/A
* SACO         N/A       50  46  86 W20G26     N/A
$$

MTZ028>042-056>058-011100-
SOUTHCENTRAL AND SOUTHEAST MONTANA
CITY           SKY/WX    TMP DP  RH WIND       PRES   REMARKS
BAKER          LGT RAIN  52  50  93 W21G30    29.69R
BILLINGS       CLOUDY    48  37  66 W9        29.86R
LIVINGSTON     MOCLDY    45  32  60 SW14      29.92F
MILES CITY     CLOUDY    52  45  77 NW21G29   29.74R
* ALZADA       N/A       50  49  96 SW9        N/A
* LAME DEER    N/A       47  41  80 NW13G22    N/A
$$

REGIONAL REPORTS...DAKOTAS
CITY           SKY/WX    TMP DP  RH WIND       PRES   REMARKS
WILLISTON      CLOUDY    54  50  86 W22G29    29.52R
DICKINSON      CLOUDY    54  48  80 W17G28    29.59R
BEACH          N/A       52  52 100 W16G29    29.65R
CROSBY         N/A      N/A N/A N/A N/A        N/A
TIOGA          CLOUDY    52  52 100 W17G24    29.49R
WATFORD CITY   CLOUDY    52  50  93 W15G23    29.52R
BISMARCK       CLOUDY    55  54  96 W10       29.55R
GRAND FORKS    CLOUDY    63  54  73 S23G31    29.51R
FARGO          MOCLDY    63  57  81 S18G26    29.60R
BUFFALO SD     PTCLDY    50  48  93 SW10      29.65R
RAPID CITY     MOCLDY    52  46  80 W5        29.76R
$$

REGIONAL REPORTS...WYOMING/IDAHO/WASHINGTON
CITY           SKY/WX    TMP DP  RH WIND       PRES   REMARKS
GILLETTE       CLOUDY    48  45  89 NW9       29.83S
SHERIDAN       CLOUDY    48  39  71 NW15      29.85S
CODY           CLOUDY    45  41  86 CALM      29.88S
YELLOWSTONE LA CLOUDY    32  28  85 VRB3      29.97F
SALMON         CLOUDY    45  37  74 CALM      30.01S
MULLAN PASS    FAIR      32  32 100 NW6       30.02S WCI  26
SAND POINT     FOG       41  41 100 CALM      30.03R VSB 1
SPOKANE        CLEAR     45  34  65 SW3       30.03S

$$



USA.gov is the U.S. government's official web portal to all federal, state and local government web resources and services.